Weather History for Worcester, MA

Change the Weather History Date:

Sunday, December 30, 2012

  Actual Average Record
Temperature  
Mean Temperature 22 °F 25 °F  
Max Temperature 27 °F 32 °F 56 °F (1984)
Min Temperature 16 °F 18 °F -15 °F (1933)
Degree Days  
Heating Degree Days 43 40  
Month to date heating degree days 908 1060  
Since 1 July heating degree days 2173 2462  
Cooling Degree Days 0 0  
Month to date cooling degree days 0 0  
Year to date cooling degree days 674 471  
Moisture  
Dew Point 16 °F    
Average Humidity 74    
Maximum Humidity 92    
Minimum Humidity 55    
Precipitation  
Precipitation 0.02 in 0.11 in 2.14 in (1942)
Month to date precipitation 5.11 3.71  
Year to date precipitation 43.88 47.96  
Sea Level Pressure  
Sea Level Pressure 29.63 in    
Wind  
Wind Speed 20 mph (WNW)    
Max Wind Speed 33 mph    
Max Gust Speed 42 mph    
Visibility 7 miles    
Events Snow    
T = Trace of Precipitation, MM = Missing Value Source: NWS Daily Summary

Daily Weather History Graph

Daily Weather History Graph

Search for Another Location

Airport:

Trip Planner

Search our weather history database for the weather conditions in past years. The results will help you decide how hot, cold, wet, or windy it might be!

Date:

Astronomy

Dec. 30, 2012 Rise Set
Actual Time 7:16 AM EST 4:24 PM EST
Civil Twilight 6:44 AM EST 4:56 PM EST
Nautical Twilight 6:09 AM EST 5:31 PM EST
Astronomical Twilight 5:35 AM EST 6:05 PM EST
Moon 6:55 PM EST 8:20 AM EST
Length of Visible Light 10h 11m
Length of Day
9h 08m
Waning Gibbous, 95% of the Moon is Illuminated
Dec 30
Waning Gibbous
Jan 4
Last Quarter
Jan 11
New
Jan 18
First Quarter
Jan 26
Full

Hourly Weather History & Observations

Time (EST) Temp. Windchill Dew Point Humidity Pressure Visibility Wind Dir Wind Speed Gust Speed Precip Events Conditions
12:01 AM 27.0 °F 16.1 °F 25.0 °F 92% 29.41 in 2.0 mi NNW 12.7 mph - 0.00 in Snow Light Snow
12:27 AM 27.0 °F 15.6 °F 24.1 °F 89% 29.41 in 4.0 mi NNW 13.8 mph - 0.01 in Snow Light Snow
12:34 AM 27.0 °F 16.1 °F 24.1 °F 89% 29.42 in 5.0 mi NNW 12.7 mph - 0.01 in Snow Light Snow
12:54 AM 27.0 °F 17.3 °F 24.1 °F 89% 29.46 in 2.0 mi NNW 10.4 mph - 0.01 in Snow Light Snow
12:59 AM 27.0 °F 16.1 °F 24.1 °F 89% 29.42 in 1.8 mi NW 12.7 mph - 0.00 in Snow Light Snow
1:20 AM 26.1 °F 14.0 °F 23.0 °F 88% 29.43 in 2.0 mi NW 15.0 mph 21.9 mph 0.00 in Snow Light Snow
1:44 AM 25.0 °F 12.6 °F 21.9 °F 88% 29.44 in 3.0 mi WNW 15.0 mph - 0.01 in Snow Light Snow
1:54 AM 25.0 °F 11.7 °F 21.9 °F 88% 29.48 in 3.0 mi NW 17.3 mph 27.6 mph 0.01 in Snow Light Snow
2:01 AM 25.0 °F 10.6 °F 21.9 °F 88% 29.44 in 3.0 mi NW 20.7 mph 27.6 mph 0.00 in Snow Light Snow
2:54 AM 26.1 °F 13.1 °F 21.9 °F 84% 29.48 in 7.0 mi NW 17.3 mph - 0.00 in Snow Light Snow
3:51 AM 26.6 °F 13.8 °F 21.2 °F 80% 29.45 in 10.0 mi WNW 17.3 mph - 0.00 in   Mostly Cloudy
3:54 AM 26.1 °F 12.7 °F 21.9 °F 84% 29.49 in 10.0 mi WNW 18.4 mph - 0.00 in   Mostly Cloudy
4:24 AM 25.0 °F 11.3 °F 21.9 °F 88% 29.45 in 10.0 mi WNW 18.4 mph 25.3 mph 0.00 in   Scattered Clouds
4:54 AM 25.0 °F 11.3 °F 21.0 °F 85% 29.50 in 10.0 mi WNW 18.4 mph 28.8 mph 0.00 in   Clear
5:26 AM 25.0 °F 8.6 °F 19.9 °F 81% 29.48 in 2.5 mi WNW 27.6 mph 40.3 mph 0.00 in   Partly Cloudy
5:38 AM 24.1 °F 8.7 °F 19.0 °F 81% 29.49 in 4.0 mi NW 23.0 mph 34.5 mph 0.00 in Snow Blowing Snow
5:54 AM 24.1 °F 8.7 °F 19.0 °F 81% 29.56 in 7.0 mi WNW 23.0 mph 29.9 mph 0.00 in   Partly Cloudy
6:54 AM 23.0 °F 6.3 °F 16.0 °F 74% 29.60 in 5.0 mi WNW 26.5 mph 35.7 mph 0.00 in   Mostly Cloudy
7:54 AM 21.9 °F 4.5 °F 15.1 °F 75% 29.62 in 2.5 mi WNW 27.6 mph 34.5 mph 0.00 in   Partly Cloudy
8:06 AM 21.9 °F 4.2 °F 15.1 °F 75% 29.58 in 1.5 mi WNW 28.8 mph 36.8 mph 0.00 in Snow Blowing Snow
8:19 AM 21.9 °F 5.5 °F 15.1 °F 75% 29.59 in 10.0 mi WNW 24.2 mph 35.7 mph 0.00 in   Mostly Cloudy
8:54 AM 21.9 °F 5.5 °F 15.1 °F 75% 29.65 in 10.0 mi NW 24.2 mph 33.4 mph 0.00 in   Mostly Cloudy
9:54 AM 21.9 °F 6.2 °F 15.1 °F 75% 29.69 in 3.0 mi WNW 21.9 mph 34.5 mph 0.00 in   Mostly Cloudy
10:54 AM 23.0 °F 6.3 °F 15.1 °F 72% 29.69 in 4.0 mi WNW 26.5 mph 35.7 mph 0.00 in   Clear
11:54 AM 23.0 °F 6.0 °F 14.0 °F 68% 29.69 in 10.0 mi WNW 27.6 mph 36.8 mph 0.00 in   Clear
12:35 PM 24.1 °F 7.4 °F 14.0 °F 65% 29.65 in 10.0 mi WNW 27.6 mph 38.0 mph 0.00 in   Partly Cloudy
12:54 PM 24.1 °F 8.3 °F 14.0 °F 65% 29.70 in 10.0 mi WNW 24.2 mph 36.8 mph 0.00 in   Clear
1:20 PM 24.1 °F 8.0 °F 12.9 °F 62% 29.66 in 2.5 mi WNW 25.3 mph 40.3 mph 0.00 in Snow Blowing Snow
1:38 PM 25.0 °F 8.9 °F 12.9 °F 60% 29.66 in 10.0 mi WNW 26.5 mph 36.8 mph 0.00 in   Clear
1:54 PM 25.0 °F 9.2 °F 12.0 °F 58% 29.71 in 10.0 mi WNW 25.3 mph 40.3 mph 0.00 in   Clear
2:14 PM 25.0 °F 7.8 °F 12.0 °F 58% 29.67 in 2.5 mi WNW 31.1 mph 41.4 mph N/A Snow Blowing Snow
2:21 PM 25.0 °F 9.5 °F 12.0 °F 58% 29.67 in 10.0 mi WNW 24.2 mph 36.8 mph N/A   Clear
2:54 PM 25.0 °F 12.6 °F 10.9 °F 55% 29.74 in 10.0 mi WNW 15.0 mph 28.8 mph N/A   Clear
3:54 PM 24.1 °F 9.0 °F 10.0 °F 55% 29.78 in 7.0 mi WNW 21.9 mph 35.7 mph 0.00 in   Clear
4:54 PM 23.0 °F 7.6 °F 10.0 °F 58% 29.81 in 10.0 mi WNW 21.9 mph 33.4 mph N/A   Clear
5:54 PM 21.9 °F 6.5 °F 9.0 °F 58% 29.86 in 10.0 mi WNW 20.7 mph 28.8 mph N/A   Clear
6:54 PM 21.0 °F 5.4 °F 8.1 °F 57% 29.90 in 10.0 mi WNW 20.7 mph 33.4 mph N/A   Clear
7:54 PM 19.9 °F 4.3 °F 8.1 °F 60% 29.94 in 10.0 mi WNW 19.6 mph 28.8 mph N/A   Clear
8:54 PM 19.9 °F 4.3 °F 7.0 °F 57% 29.96 in 10.0 mi WNW 19.6 mph 32.2 mph N/A   Clear
9:54 PM 18.0 °F 4.2 °F 6.1 °F 60% 29.97 in 10.0 mi WNW 13.8 mph - N/A   Clear
10:54 PM 17.1 °F 2.0 °F 6.1 °F 62% 29.99 in 10.0 mi WNW 16.1 mph 21.9 mph N/A   Clear
11:54 PM 17.1 °F 5.0 °F 6.1 °F 62% 29.98 in 10.0 mi WNW 10.4 mph - N/A   Clear